Regional Weather Roundup
Issued by NWS Boston, MA

Current Version | Previous Version | Text Only | Print | Product List | Glossary Off
Versions: 1 2 3 4 5 6 7 8 9 10 11 12 13 14 15 16 17 18 19 20 21 22 23 24 25 26 27 28 29 30 31 32 33 34 35 36 37 38 39 40 41 42 43 44 45 46 47 48 49 50
000 ASUS41 KBOX 240010 RWRBOX REGIONAL WEATHER ROUNDUP NATIONAL WEATHER SERVICE BOSTON/NORTON MA 700 PM EST WED JAN 23 2019 NOTE: "FAIR" INDICATES FEW OR NO CLOUDS BELOW 12,000 FEET WITH NO SIGNIFICANT WEATHER AND/OR OBSTRUCTIONS TO VISIBILITY. MAZALL-240100- EASTERN MASSACHUSETTS CITY SKY/WX TMP DP RH WIND PRES REMARKS BOSTON CLOUDY 43 32 65 SW16 30.05F 6HR MIN TEMP: 40; 6HR MAX TEMP: 43; BEVERLY CLOUDY 41 30 65 S12 30.03F LAWRENCE CLOUDY 39 27 62 SW14 30.04F WCI 31 BEDFORD CLOUDY 41 29 62 S15G22 30.02F BLUE HILL N/A 38 33 82 S24G31 30.01F WCI 27 NORWOOD CLOUDY 43 34 70 S9 30.05F MARSHFIELD CLOUDY 45 39 81 SW12G21 30.06F PLYMOUTH CLOUDY 44 39 82 S13G21 30.08F TAUNTON CLOUDY 47 39 74 S10G20 30.08F NEW BEDFORD CLOUDY 45 43 93 S12 30.09F $$ MAZALL-240100- CAPE COD AND THE ISLANDS CITY SKY/WX TMP DP RH WIND PRES REMARKS FALMOUTH CLOUDY 45 43 93 S15G23 30.11F HYANNIS CLOUDY 43 39 86 S14 30.11F CHATHAM CLOUDY 41 38 89 SW9 30.13F PROVINCETOWN CLOUDY 42 40 92 S18G25 30.09F NANTUCKET CLOUDY 42 40 92 S15 30.14F MARTHAS VNYRD CLOUDY 44 43 96 S10 30.13F $$ MAZALL-240100- CENTRAL AND WESTERN MASSACHUSETTS CITY SKY/WX TMP DP RH WIND PRES REMARKS WORCESTER CLOUDY 35 27 72 SW16G23 30.00F WCI 25 6HR MIN TEMP: 33; 6HR MAX TEMP: 35; FITCHBURG CLOUDY 39 27 62 S9 30.03F ORANGE CLOUDY 38 25 59 S12G17 30.02F WCI 30 SPRINGFIELD CLOUDY 37 25 63 S10 30.02F WCI 29 WESTFIELD CLOUDY 36 25 64 S12 30.03F WCI 28 NORTH ADAMS LGT RAIN 41 35 79 VRB7G24 29.95F PITTSFIELD CLOUDY 39 30 70 SW15G30 29.94F WCI 31 $$ RIZALL-240100- RHODE ISLAND CITY SKY/WX TMP DP RH WIND PRES REMARKS PROVIDENCE CLOUDY 41 37 86 S13 30.09F 6HR MIN TEMP: 40; 6HR MAX TEMP: 41; 6HR PCP: TRACE; NEWPORT CLOUDY 44 41 89 S10 30.10F BLOCK ISLAND CLOUDY 45 43 93 SW12 30.10F SMITHFIELD CLOUDY 39 34 82 S6 30.05F WESTERLY CLOUDY 45 42 89 SW8 30.11F $$ CTZALL-240100- CONNECTICUT CITY SKY/WX TMP DP RH WIND PRES REMARKS BRADLEY INTL CLOUDY 36 27 69 S7 30.05F WCI 30 6HR MIN TEMP: 35; 6HR MAX TEMP: 36; HARTFORD CLOUDY 38 30 73 S7 30.06F BRIDGEPORT CLOUDY 41 35 79 S3 30.06F DANBURY CLOUDY 33 30 88 CALM 30.05F GROTON CLOUDY 39 36 89 S3 30.09F NEW HAVEN CLOUDY 41 34 76 SE6 30.06F CHESTER N/A 41 36 81 S7 30.06F MERIDEN CLOUDY 33 31 92 CALM 30.06F WILLIMANTIC CLOUDY 40 33 76 S5 30.07F OXFORD CLOUDY 33 28 81 CALM 30.05F $$ MEZ002-015-021-024-NHZ003-005-008-011-012-014-VTZ005-008-240100- NORTHERN NEW ENGLAND CITY SKY/WX TMP DP RH WIND PRES REMARKS PORTLAND ME CLOUDY 34 28 79 CALM 29.99F 6HR MIN TEMP: 34; 6HR MAX TEMP: 36; 6HR PCP: 0.01; BANGOR ME CLOUDY 22 19 89 E3 30.00F CONCORD NH CLOUDY 38 31 76 S8 29.98F MANCHESTER NH CLOUDY 40 28 62 S9 29.98F NASHUA NH CLOUDY 39 28 64 VRB3 30.01F PORTSMOUTH NH CLOUDY 40 27 59 S13 29.98 JAFFREY NH CLOUDY 36 28 73 S13G21 29.98R WCI 27 KEENE NH MIX PCPN 36 29 75 S10 29.99S WCI 28 BURLINGTON VT MOCLDY 34 27 75 S17G33 29.82F WCI 23 MT. WASHINGTON FOG 28 28 100 W59G64 N/A VSB 0 WCI 8 $$ NYZ052-076-240100- EASTERN NEW YORK CITY SKY/WX TMP DP RH WIND PRES REMARKS ALBANY LGT RAIN 37 29 72 S14G28 29.94F WCI 28 6HR MIN TEMP: 31; 6HR MAX TEMP: 37; 6HR PCP: 0.04; NEW YORK CITY MOCLDY 42 35 76 S7 30.05F 6HR MIN TEMP: 39; 6HR MAX TEMP: 44; $$ ANZALL-240100- MARINE OBSERVATIONS STATION/POSITION TIME TEMP WIND PRES VSBY WAVE AIR SEA DIR/SP/G HT/PER (UTC) (F) (DEG/KT/KT) (MB) (MI) (FT/S) BOSTON BUOY 2350 43 41 190/ 12/ 14 1017.9F 2/ 4 BUZZARDS BAY 2300 44 180/ 11/ 11 1020.9F NANTUCKET SOUND 2350 39 35 180/ 14/ 17 1020.3F 1/ 2 MASS BAY-STELLWA 2304 42 40 220/ 17/ 19 1017.4S 1 7/8 4/ 5 ISLE OF SHOALS 0000 40 210/ 24/ 27 1015.6F S OF BLOCK IS 0000 44 N/A 5/ 7 $$ ......................KEY......................... SKY/WX - SKY CONDITION/PRESENT WEATHER TMP - TEMPERATURE IN FAHRENHEIT DWPT - DEWPOINT IN FAHRENHEIT RH - RELATIVE HUMIDITY IN PERCENT WIND - DIRECTION AND SPEED IN MPH PRES - MEAN SEA LEVEL PRESSURE IN INCHES OF HG WCI - WIND CHILL INDEX VSB - VISIBILITY IN MILES HX - HEAT INDEX TC - TEMPERATURE IN CELSIUS VRB - VARIABLE WIND DIRECTION N/A - NOT AVAILABLE

USA.gov is the U.S. government's official web portal to all federal, state and local government web resources and services.